#timestamp,LO_Frequency,Hit,StdDev 
1518577215.9,286047000.5,N
1518577235.7,286047002.3,N
1518577255.5,286047002.4,N
1518577275.4,286047002.1,N
1518577295.2,286047004.4,Y
1518577315.1,286047000.2,P
1518577316.0,286047000.2,N
1518577335.8,286047002.4,P
1518577355.6,286047000.0,N
1518577375.5,286047001.0,N
1518577395.3,286046998.2,N
1518577415.1,286047001.1,N
1518577435.9,286046998.2,N
1518577455.7,286046998.1,N
1518577475.6,286047000.0,N
1518577495.4,286047000.5,N
1518577515.2,286047001.1,N
1518577535.1,286047001.0,N
1518577536.0,286047001.0,N
1518577555.8,286047001.2,N
1518577575.6,286047000.2,N
1518577595.5,286046999.7,N
1518577615.3,286047000.2,N
1518577635.2,286046999.8,N
1518577655.9,286047000.9,N
1518577675.7,286047000.6,N
1518577695.6,286047000.5,N
1518577715.4,286047000.0,N
1518577735.3,286047000.2,N
1518577755.1,286047002.8,N
1518577756.0,286047002.8,N
1518577775.8,286047002.3,N
1518577795.7,286047002.7,N
1518577815.5,286047000.2,N
1518577835.3,286046999.8,N
1518577855.2,286047000.1,N
1518577875.0,286047002.3,N
1518577875.9,286047002.3,N
1518577895.8,286047001.4,N
1518577915.6,286047001.6,N
1518577935.4,286047002.0,N
1518577955.3,286047002.2,N
1518577975.1,286047002.4,N
1518577995.9,286047000.7,N
1518578015.7,286046999.9,N
1518578035.5,286047000.5,N
1518578055.4,286047000.2,N
1518578075.2,286047000.1,N
1518578095.0,286047000.0,N
1518578096.0,286047000.0,N
1518578115.8,286047002.3,N
1518578135.6,286046999.8,N
1518578155.5,286047002.7,N
1518578175.3,286047002.8,N
1518578195.1,286047002.6,N
1518578215.9,286047000.5,N
1518578235.7,286047000.3,N
1518578255.6,286047000.3,N
1518578275.4,286046999.9,N
1518578295.2,286047002.2,N
1518578315.1,286046999.9,N
1518578316.0,286046999.9,N
1518578335.8,286047000.0,N
1518578355.6,286047000.5,N
1518578375.5,286046999.7,N
1518578395.3,286047000.0,N
1518578415.2,286047000.1,N
1518578435.9,286046999.7,N
1518578455.7,286047002.2,N
1518578475.6,286047002.0,N
1518578495.4,286047002.6,N
1518578515.2,286047001.9,N
1518578535.1,286047002.1,N
1518578536.0,286047002.1,N
1518578555.8,286047002.7,N
1518578575.7,286046999.7,N
1518578595.5,286047002.7,N
1518578615.4,286047002.6,N
1518578635.2,286047000.2,N
1518578655.0,286047000.2,N
1518578655.9,286047000.2,N
1518578675.8,286047002.4,N
1518578695.6,286047000.1,N
1518578715.5,286047000.1,N
1518578735.3,286047002.4,N
1518578755.1,286047002.8,N
1518578775.9,286047002.4,N
1518578795.7,286047002.5,N
1518578815.5,286047002.2,N
1518578835.4,286047000.4,N
1518578855.2,286046999.9,N
1518578875.1,286047000.2,N
1518578876.0,286047000.2,N
1518578895.8,286047000.8,N
1518578915.6,286046999.9,N
1518578935.5,286047001.2,N
1518578955.3,286047000.9,N
1518578975.2,286046999.7,N
1518578995.9,286047002.2,N
1518579015.7,286047004.3,Y
1518579035.6,286047002.8,P
1518579055.4,286047002.4,P
1518579075.2,286047002.6,P
1518579095.1,286047002.3,Y
1518579096.0,286047002.3,P
1518579115.8,286046998.3,P
1518579135.7,286046998.3,N
1518579155.5,286046998.4,N
1518579175.3,286046999.2,N
1518579195.2,286046997.3,N
1518579215.0,286046996.5,N
1518579215.9,286046996.5,N
1518579235.8,286046997.4,N
1518579255.6,286046999.3,N
1518579275.4,286046996.9,N
1518579295.3,286046997.3,N
1518579315.1,286046999.4,N
1518579335.9,286046999.1,N
1518579355.7,286046998.8,N
1518579375.5,286047000.3,N
1518579395.4,286047000.7,N
1518579415.2,286046999.9,N
1518579435.0,286047000.8,N
1518579435.9,286047000.8,N
1518579455.8,286046998.6,N
1518579475.6,286046998.8,N
1518579495.5,286046998.6,N
1518579515.3,286047001.2,N
1518579535.1,286047000.9,N
1518579555.9,286047000.9,N
1518579575.7,286046998.3,N
1518579595.5,286046999.2,N
1518579615.4,286046999.5,N
1518579635.2,286046999.4,N
1518579655.1,286046998.9,N
1518579656.0,286046998.9,N
1518579675.8,286046998.2,N
1518579695.6,286046999.0,N
1518579715.5,286046998.3,N
1518579735.3,286046999.3,N
1518579755.1,286046998.7,N
1518579775.9,286046998.3,N
1518579795.7,286046999.0,N
1518579815.6,286046998.7,N
1518579835.4,286046998.9,N
1518579855.2,286046998.4,N
1518579875.1,286046999.6,N
1518579876.0,286046999.6,N
1518579895.8,286046999.5,N
1518579915.6,286046998.8,N
1518579935.5,286046999.1,N
1518579955.3,286046999.3,N
1518579975.2,286046998.3,N
1518579995.9,286046998.6,N
1518580015.7,286046999.3,N
1518580035.6,286046999.5,N
1518580055.4,286046999.4,N
1518580075.2,286046999.4,N
1518580095.1,286046998.4,N
1518580096.0,286046998.4,N
1518580115.8,286047000.8,N
1518580135.7,286046998.6,N
1518580155.5,286047000.8,N
1518580175.3,286046998.4,N
1518580195.2,286047000.8,N
1518580215.0,286047000.8,N
1518580215.9,286047000.8,N
1518580235.8,286047000.9,N
1518580255.6,286047000.7,N
1518580275.4,286046998.6,N
1518580295.3,286046998.4,N
1518580315.1,286046998.7,N
1518580335.8,286046998.5,N
1518580355.7,286047001.0,N
1518580375.5,286047000.6,N
1518580395.4,286046998.6,N
1518580415.2,286046998.4,N
1518580435.0,286046998.5,N
1518580435.9,286046998.5,N
1518580455.8,286046998.1,N
1518580475.6,286047000.7,N
1518580495.4,286047001.2,N
1518580515.3,286047001.1,N
1518580535.1,286047001.0,N
1518580555.9,286047000.9,N
1518580575.7,286046998.2,N
1518580595.5,286046998.7,N
1518580615.4,286047000.8,N
1518580635.2,286046998.8,N
1518580655.0,286046998.5,N
1518580656.0,286046998.5,N
1518580675.8,286047001.0,N
1518580695.6,286047002.6,N
1518580715.5,286047000.8,N
1518580735.3,286047000.7,N
1518580755.1,286047000.4,N
1518580775.9,286047000.9,N
1518580795.7,286047000.9,N
